Year,Month,Day,Hour,Minute,Value (Times are PST for temperature in C)
2010,02,16,00,06,8.10
2010,02,16,00,07,8.10
2010,02,16,00,08,8.10
2010,02,16,00,09,8.10
2010,02,16,00,10,8.10
2010,02,16,00,11,8.10
2010,02,16,00,12,8.10
2010,02,16,00,13,8.10
2010,02,16,00,14,8.10
2010,02,16,00,15,8.10
2010,02,16,00,16,8.10
2010,02,16,00,17,8.10
2010,02,16,00,18,8.10
2010,02,16,00,19,8.10
2010,02,16,00,20,8.10
2010,02,16,00,21,8.10
2010,02,16,00,22,8.10
2010,02,16,00,23,8.20
2010,02,16,00,24,8.20
2010,02,16,00,25,8.20
2010,02,16,00,26,8.20
2010,02,16,00,27,8.20
2010,02,16,00,28,8.20
2010,02,16,00,29,8.20
2010,02,16,00,30,8.20
2010,02,16,00,31,8.20
2010,02,16,00,32,8.20
2010,02,16,00,33,8.20
2010,02,16,00,34,8.20
2010,02,16,00,35,8.20
2010,02,16,00,36,8.20
2010,02,16,00,37,8.20
2010,02,16,00,38,8.20
2010,02,16,00,39,8.20
2010,02,16,00,40,8.20
2010,02,16,00,41,8.20
2010,02,16,00,42,8.20
2010,02,16,00,43,8.20
2010,02,16,00,44,8.20
2010,02,16,00,45,8.20
2010,02,16,00,46,8.20
2010,02,16,00,47,8.20
2010,02,16,00,48,8.10
2010,02,16,00,49,8.10
2010,02,16,00,50,8.10
2010,02,16,00,51,8.10
2010,02,16,00,52,8.10
2010,02,16,00,53,8.10
2010,02,16,00,54,8.10
2010,02,16,00,55,8.10
2010,02,16,00,56,8.10
2010,02,16,00,57,8.10
2010,02,16,00,58,8.10
2010,02,16,00,59,8.10
2010,02,16,01,00,8.10
2010,02,16,01,01,8.10
2010,02,16,01,02,8.10
2010,02,16,01,03,8.00
2010,02,16,01,04,8.00
2010,02,16,01,05,8.00
2010,02,16,01,06,8.00
2010,02,16,01,07,8.00
2010,02,16,01,08,8.00
2010,02,16,01,09,8.00
2010,02,16,01,10,8.00
2010,02,16,01,11,8.00
2010,02,16,01,12,8.00
2010,02,16,01,13,7.90
2010,02,16,01,14,7.90
2010,02,16,01,15,7.90
2010,02,16,01,16,7.90
2010,02,16,01,17,7.90
2010,02,16,01,18,7.90
2010,02,16,01,19,8.10
2010,02,16,02,06,7.90
2010,02,16,02,07,7.90
2010,02,16,02,08,7.90
2010,02,16,02,09,7.90
2010,02,16,02,10,7.90
2010,02,16,02,11,7.90
2010,02,16,02,12,7.90
2010,02,16,02,13,7.90
2010,02,16,02,14,7.90
2010,02,16,02,15,7.90
2010,02,16,02,16,7.90
2010,02,16,02,17,7.90
2010,02,16,02,18,7.90
2010,02,16,02,19,7.90
2010,02,16,02,20,7.90
2010,02,16,02,21,7.90
2010,02,16,02,22,7.90
2010,02,16,02,23,7.90
2010,02,16,02,24,7.90
2010,02,16,02,25,7.90
2010,02,16,02,26,7.90
2010,02,16,02,27,7.90
2010,02,16,02,28,7.90
2010,02,16,02,29,7.90
2010,02,16,02,30,7.80
2010,02,16,02,31,7.90
2010,02,16,02,32,7.80
2010,02,16,02,33,7.80
2010,02,16,02,34,7.80
2010,02,16,02,35,7.80
2010,02,16,02,36,7.80
2010,02,16,02,37,7.80
2010,02,16,02,38,7.80
2010,02,16,02,39,7.80
2010,02,16,02,40,7.80
2010,02,16,02,41,7.80
2010,02,16,02,42,7.80
2010,02,16,02,43,7.80
2010,02,16,02,44,7.80
2010,02,16,02,45,7.80
2010,02,16,02,46,7.80
2010,02,16,02,47,7.80
2010,02,16,02,48,7.80
2010,02,16,02,49,7.80
2010,02,16,02,50,7.80
2010,02,16,02,51,7.80
2010,02,16,02,52,7.90
2010,02,16,02,53,7.90
2010,02,16,02,54,7.90
2010,02,16,02,55,7.90
2010,02,16,02,56,7.90
2010,02,16,02,57,7.90
2010,02,16,02,58,7.80
2010,02,16,02,59,7.80
2010,02,16,03,00,7.80
2010,02,16,03,01,7.80
2010,02,16,03,02,7.80
2010,02,16,03,03,7.80
2010,02,16,03,04,7.80
2010,02,16,03,05,7.80
2010,02,16,03,06,7.80
2010,02,16,03,07,7.80
2010,02,16,03,08,7.80
2010,02,16,03,09,7.80
2010,02,16,03,10,7.80
2010,02,16,03,11,7.80
2010,02,16,03,12,7.80
2010,02,16,03,13,7.80
2010,02,16,03,14,7.80
2010,02,16,03,15,7.80
2010,02,16,03,16,7.80
2010,02,16,03,17,7.90
2010,02,16,03,18,7.80
2010,02,16,03,19,7.90
2010,02,16,03,20,7.90
2010,02,16,03,21,7.90
2010,02,16,03,22,7.90
2010,02,16,03,23,7.90
2010,02,16,03,24,7.90
2010,02,16,03,25,7.80
2010,02,16,03,26,7.80
2010,02,16,03,27,7.90
2010,02,16,04,06,7.80
2010,02,16,04,07,7.80
2010,02,16,04,08,7.80
2010,02,16,04,09,7.80
2010,02,16,04,10,7.90
2010,02,16,04,11,7.90
2010,02,16,04,12,7.90
2010,02,16,04,13,7.90
2010,02,16,04,14,7.90
2010,02,16,04,15,7.90
2010,02,16,04,16,7.90
2010,02,16,04,17,7.90
2010,02,16,04,18,7.90
2010,02,16,04,19,7.90
2010,02,16,04,20,7.90
2010,02,16,04,21,7.90
2010,02,16,04,22,7.90
2010,02,16,04,23,7.90
2010,02,16,04,24,7.90
2010,02,16,04,25,7.90
2010,02,16,04,26,7.90
2010,02,16,04,27,7.90
2010,02,16,04,28,7.90
2010,02,16,04,29,7.90
2010,02,16,04,30,7.90
2010,02,16,04,31,7.90
2010,02,16,04,32,7.90
2010,02,16,04,33,7.90
2010,02,16,04,34,7.90
2010,02,16,04,35,7.90
2010,02,16,04,36,7.90
2010,02,16,04,37,7.90
2010,02,16,04,38,7.90
2010,02,16,04,39,7.90
2010,02,16,04,40,7.90
2010,02,16,04,41,7.90
2010,02,16,04,42,7.90
2010,02,16,04,43,7.90
2010,02,16,04,44,7.90
2010,02,16,04,45,7.90
2010,02,16,04,46,7.90
2010,02,16,04,47,7.90
2010,02,16,04,48,7.90
2010,02,16,04,49,7.90
2010,02,16,04,50,7.90
2010,02,16,04,51,7.90
2010,02,16,04,52,7.90
2010,02,16,04,53,7.90
2010,02,16,04,54,7.90
2010,02,16,04,55,7.90
2010,02,16,04,56,7.90
2010,02,16,04,57,7.90
2010,02,16,04,58,7.90
2010,02,16,04,59,7.90
2010,02,16,05,00,7.90
2010,02,16,05,01,7.80
2010,02,16,05,02,7.80
2010,02,16,05,03,7.80
2010,02,16,05,04,7.80
2010,02,16,05,05,7.80
2010,02,16,05,06,7.80
2010,02,16,05,07,7.80
2010,02,16,05,08,7.80
2010,02,16,05,09,7.80
2010,02,16,05,10,7.80
2010,02,16,05,11,7.80
2010,02,16,05,12,7.70
2010,02,16,05,13,7.70
2010,02,16,05,14,7.70
2010,02,16,05,15,7.70
2010,02,16,05,16,7.70
2010,02,16,05,17,7.70
2010,02,16,05,18,7.70
2010,02,16,05,19,7.70
2010,02,16,05,20,7.70
2010,02,16,05,21,7.70
2010,02,16,05,22,7.70
2010,02,16,05,23,7.70
2010,02,16,05,24,7.70
2010,02,16,05,25,7.70
2010,02,16,05,26,7.70
2010,02,16,05,27,7.80
2010,02,16,05,28,7.80
2010,02,16,05,29,7.80
2010,02,16,05,30,7.80
2010,02,16,05,31,7.80
2010,02,16,05,32,7.80
2010,02,16,05,33,7.80
2010,02,16,05,34,7.80
2010,02,16,05,35,7.80
2010,02,16,05,36,7.80
2010,02,16,05,37,7.80
2010,02,16,05,38,7.80
2010,02,16,05,39,7.80
2010,02,16,05,40,7.80
2010,02,16,05,41,7.80
2010,02,16,05,42,7.80
2010,02,16,05,43,7.80
2010,02,16,05,44,7.80
2010,02,16,05,45,7.80
2010,02,16,05,46,7.80
2010,02,16,05,47,7.80
2010,02,16,05,48,7.80
2010,02,16,05,49,7.80
2010,02,16,05,50,7.80
2010,02,16,05,51,7.80
2010,02,16,05,52,7.80
2010,02,16,05,53,7.80
2010,02,16,05,54,7.80
2010,02,16,05,55,7.80
2010,02,16,05,56,7.90
2010,02,16,05,57,7.90
2010,02,16,05,58,7.90
2010,02,16,05,59,7.90
2010,02,16,06,00,7.90
2010,02,16,06,01,7.90
2010,02,16,06,02,7.90
2010,02,16,06,03,7.90
2010,02,16,06,04,7.90
2010,02,16,06,05,7.90
2010,02,16,06,06,7.90
2010,02,16,06,07,7.90
2010,02,16,06,08,7.90
2010,02,16,06,09,7.90
2010,02,16,06,10,7.90
2010,02,16,06,11,7.90
2010,02,16,06,12,7.90
2010,02,16,06,13,7.90
2010,02,16,06,14,7.90
2010,02,16,06,15,7.90
2010,02,16,06,16,7.90
2010,02,16,06,17,7.90
2010,02,16,06,18,7.90
2010,02,16,06,19,7.90
2010,02,16,06,20,7.90
2010,02,16,06,21,7.90
2010,02,16,06,22,7.90
2010,02,16,06,23,7.90
2010,02,16,06,24,7.90
2010,02,16,06,25,7.90
2010,02,16,06,26,7.90
2010,02,16,06,27,7.90
2010,02,16,06,28,7.90
2010,02,16,06,29,7.90
2010,02,16,06,30,7.90
2010,02,16,06,31,8.00
2010,02,16,06,32,8.00
2010,02,16,07,06,8.10
2010,02,16,07,07,8.10
2010,02,16,07,08,8.10
2010,02,16,07,09,8.10
2010,02,16,07,10,8.10
2010,02,16,07,11,8.10
2010,02,16,07,12,8.10
2010,02,16,07,13,8.10
2010,02,16,07,14,8.10
2010,02,16,07,15,8.10
2010,02,16,07,16,8.10
2010,02,16,07,17,8.10
2010,02,16,07,18,8.10
2010,02,16,07,19,8.10
2010,02,16,07,20,8.10
2010,02,16,07,21,8.10
2010,02,16,07,22,8.10
2010,02,16,07,23,8.10
2010,02,16,07,24,8.10
2010,02,16,07,25,8.10
2010,02,16,07,26,8.10
2010,02,16,07,27,8.10
2010,02,16,07,28,8.10
2010,02,16,07,29,8.10
2010,02,16,07,30,8.00
2010,02,16,07,31,8.00
2010,02,16,07,32,8.00
2010,02,16,07,33,8.00
2010,02,16,07,34,8.00
2010,02,16,07,35,8.00
2010,02,16,07,36,8.10
2010,02,16,08,06,8.10
2010,02,16,08,07,8.10
2010,02,16,08,08,8.20
2010,02,16,08,09,8.20
2010,02,16,08,10,8.20
2010,02,16,08,11,8.20
2010,02,16,08,12,8.20
2010,02,16,08,13,8.20
2010,02,16,08,14,8.20
2010,02,16,08,15,8.20
2010,02,16,08,16,8.30
2010,02,16,08,17,8.30
2010,02,16,08,18,8.30
2010,02,16,08,19,8.30
2010,02,16,08,20,8.30
2010,02,16,08,21,8.30
2010,02,16,08,22,8.30
2010,02,16,08,23,8.30
2010,02,16,08,24,8.40
2010,02,16,08,25,8.40
2010,02,16,08,26,8.50
2010,02,16,08,27,8.50
2010,02,16,08,28,8.60
2010,02,16,08,29,8.60
2010,02,16,08,30,8.70
2010,02,16,08,31,8.70
2010,02,16,08,32,8.80
2010,02,16,08,33,8.80
2010,02,16,08,34,8.80
2010,02,16,08,35,8.80
2010,02,16,08,36,8.90
2010,02,16,08,37,8.90
2010,02,16,08,38,8.90
2010,02,16,08,39,8.90
2010,02,16,08,40,8.90
2010,02,16,08,41,9.00
2010,02,16,08,42,9.00
2010,02,16,08,43,9.10
2010,02,16,08,44,9.10
2010,02,16,08,45,9.10
2010,02,16,08,46,9.10
2010,02,16,08,47,9.10
2010,02,16,08,48,9.20
2010,02,16,08,49,9.20
2010,02,16,08,50,9.20
2010,02,16,08,51,9.20
2010,02,16,08,52,9.30
2010,02,16,08,53,9.30
2010,02,16,08,54,9.30
2010,02,16,08,55,9.30
2010,02,16,08,56,9.40
2010,02,16,08,57,9.40
2010,02,16,08,58,9.40
2010,02,16,08,59,9.40
2010,02,16,09,00,9.40
2010,02,16,09,01,9.40
2010,02,16,09,02,9.40
2010,02,16,09,03,9.40
2010,02,16,09,04,9.40
2010,02,16,09,05,9.30
2010,02,16,09,06,9.30
2010,02,16,09,07,9.30
2010,02,16,09,08,9.30
2010,02,16,09,09,9.30
2010,02,16,09,10,9.30
2010,02,16,09,11,9.30
2010,02,16,09,12,9.30
2010,02,16,09,13,9.20
2010,02,16,09,14,9.20
2010,02,16,09,15,9.20
2010,02,16,09,16,9.20
2010,02,16,09,17,9.10
2010,02,16,09,18,9.10
2010,02,16,09,19,9.10
2010,02,16,09,20,9.10
2010,02,16,09,21,9.10
2010,02,16,09,22,9.20
2010,02,16,09,23,9.20
2010,02,16,09,24,9.20
2010,02,16,09,25,9.20
2010,02,16,09,26,9.20
2010,02,16,09,27,9.30
2010,02,16,09,28,9.30
2010,02,16,09,29,9.30
2010,02,16,09,30,9.40
2010,02,16,09,31,9.40
2010,02,16,09,32,9.40
2010,02,16,09,33,9.50
2010,02,16,09,34,9.60
2010,02,16,09,35,9.60
2010,02,16,09,36,9.70
2010,02,16,09,37,9.80
2010,02,16,09,38,9.80
2010,02,16,09,39,9.90
2010,02,16,09,40,9.90
2010,02,16,09,41,9.90
2010,02,16,09,42,10.00
2010,02,16,09,43,10.00
2010,02,16,09,44,10.00
2010,02,16,09,45,10.00
2010,02,16,09,46,10.00
2010,02,16,09,47,10.00
2010,02,16,09,48,10.10
2010,02,16,09,49,10.10
2010,02,16,09,50,10.20
2010,02,16,09,51,10.20
2010,02,16,09,52,10.30
2010,02,16,09,53,10.40
2010,02,16,09,54,10.40
2010,02,16,09,55,10.50
2010,02,16,09,56,10.60
2010,02,16,09,57,10.60
2010,02,16,09,58,10.70
2010,02,16,09,59,10.70
2010,02,16,10,00,10.80
2010,02,16,10,01,10.80
2010,02,16,10,02,10.80
2010,02,16,10,03,10.80
2010,02,16,10,04,10.90
2010,02,16,10,05,10.90
2010,02,16,10,06,10.90
2010,02,16,10,07,11.00
2010,02,16,10,08,11.00
2010,02,16,10,09,11.10
2010,02,16,10,10,11.10
2010,02,16,10,11,11.20
2010,02,16,10,12,11.30
2010,02,16,10,13,11.30
2010,02,16,10,14,11.30
2010,02,16,10,15,11.40
2010,02,16,10,16,11.50
2010,02,16,10,17,11.50
2010,02,16,10,18,11.60
2010,02,16,10,19,11.60
2010,02,16,10,20,11.70
2010,02,16,10,21,11.70
2010,02,16,10,22,11.80
2010,02,16,10,23,11.80
2010,02,16,10,24,11.70
2010,02,16,10,25,11.60
2010,02,16,10,26,11.60
2010,02,16,10,27,11.60
2010,02,16,10,28,11.60
2010,02,16,10,29,11.60
2010,02,16,10,30,11.60
2010,02,16,10,31,11.60
2010,02,16,10,32,11.60
2010,02,16,10,33,11.60
2010,02,16,10,34,11.60
2010,02,16,10,35,11.70
2010,02,16,10,36,11.60
2010,02,16,10,37,11.60
2010,02,16,10,38,11.60
2010,02,16,10,39,11.60
2010,02,16,10,40,11.50
2010,02,16,10,41,11.50
2010,02,16,10,42,11.50
2010,02,16,10,43,11.40
2010,02,16,10,44,11.40
2010,02,16,10,45,11.40
2010,02,16,10,46,11.50
2010,02,16,10,47,11.50
2010,02,16,10,48,11.50
2010,02,16,11,06,11.30
2010,02,16,11,07,11.30
2010,02,16,11,08,11.30
2010,02,16,11,09,11.30
2010,02,16,11,10,11.30
2010,02,16,11,11,11.30
2010,02,16,11,12,11.30
2010,02,16,11,13,11.40
2010,02,16,11,14,11.40
2010,02,16,11,15,11.40
2010,02,16,11,16,11.30
2010,02,16,11,17,11.40
2010,02,16,11,18,11.30
2010,02,16,11,19,11.30
2010,02,16,11,20,11.30
2010,02,16,11,21,11.30
2010,02,16,11,22,11.30
2010,02,16,11,23,11.30
2010,02,16,11,24,11.30
2010,02,16,11,25,11.40
2010,02,16,11,26,11.40
2010,02,16,11,27,11.50
2010,02,16,11,28,11.50
2010,02,16,11,29,11.50
2010,02,16,11,30,11.50
2010,02,16,11,31,11.50
2010,02,16,11,32,11.40
2010,02,16,11,33,11.50
2010,02,16,11,34,11.40
2010,02,16,11,35,11.40
2010,02,16,11,36,11.40
2010,02,16,11,37,11.40
2010,02,16,11,38,11.40
2010,02,16,11,39,11.40
2010,02,16,11,40,11.50
2010,02,16,11,41,11.50
2010,02,16,11,42,11.60
2010,02,16,11,43,11.60
2010,02,16,11,44,11.60
2010,02,16,11,45,11.60
2010,02,16,11,46,11.60
2010,02,16,11,47,11.60
2010,02,16,11,48,11.60
2010,02,16,11,49,11.60
2010,02,16,11,50,11.60
2010,02,16,11,51,11.70
2010,02,16,11,52,11.70
2010,02,16,11,53,11.70
2010,02,16,11,54,11.80
2010,02,16,11,55,11.80
2010,02,16,11,56,11.90
2010,02,16,11,57,12.00
2010,02,16,11,58,12.00
2010,02,16,11,59,12.10
2010,02,16,12,00,12.10
2010,02,16,12,01,12.20
2010,02,16,12,02,12.20
2010,02,16,12,03,12.10
2010,02,16,12,04,12.10
2010,02,16,12,05,12.00
2010,02,16,12,06,12.00
2010,02,16,12,07,11.90
2010,02,16,12,08,11.90
2010,02,16,12,09,11.90
2010,02,16,12,10,11.80
2010,02,16,12,11,11.80
2010,02,16,12,12,11.60
2010,02,16,12,13,11.50
2010,02,16,12,14,11.30
2010,02,16,12,15,11.20
2010,02,16,12,16,11.10
2010,02,16,12,17,11.00
2010,02,16,12,18,10.90
2010,02,16,12,19,10.80
2010,02,16,12,20,10.80
2010,02,16,12,21,10.70
2010,02,16,12,22,10.70
2010,02,16,12,23,10.70
2010,02,16,12,24,10.70
2010,02,16,12,25,10.80
2010,02,16,12,26,10.80
2010,02,16,12,27,10.80
2010,02,16,12,28,10.80
2010,02,16,12,29,10.80
2010,02,16,12,30,10.80
2010,02,16,12,31,10.80
2010,02,16,12,32,10.90
2010,02,16,12,33,10.90
2010,02,16,12,34,10.80
2010,02,16,12,35,10.80
2010,02,16,12,36,10.70
2010,02,16,12,37,10.70
2010,02,16,12,38,10.70
2010,02,16,12,39,10.70
2010,02,16,12,40,10.70
2010,02,16,12,41,10.70
2010,02,16,12,42,10.80
2010,02,16,12,43,10.80
2010,02,16,12,44,10.90
2010,02,16,12,45,10.90
2010,02,16,12,46,11.00
2010,02,16,12,47,11.00
2010,02,16,12,48,11.10
2010,02,16,12,49,11.20
2010,02,16,12,50,11.30
2010,02,16,12,51,11.40
2010,02,16,12,52,11.50
2010,02,16,12,53,11.60
2010,02,16,12,54,11.60
2010,02,16,12,55,11.70
2010,02,16,12,56,11.70
2010,02,16,12,57,11.70
2010,02,16,12,58,11.80
2010,02,16,12,59,11.80
2010,02,16,13,00,11.80
2010,02,16,13,01,11.70
2010,02,16,13,02,11.70
2010,02,16,13,03,11.70
2010,02,16,13,04,11.70
2010,02,16,13,05,11.70
2010,02,16,13,06,11.70
2010,02,16,13,07,11.80
2010,02,16,13,08,11.80
2010,02,16,13,09,11.80
2010,02,16,13,10,11.70
2010,02,16,13,11,11.60
2010,02,16,13,12,11.60
2010,02,16,13,13,11.50
2010,02,16,13,14,11.50
2010,02,16,13,15,11.50
2010,02,16,13,16,11.50
2010,02,16,13,17,11.50
2010,02,16,13,18,11.50
2010,02,16,13,19,11.40
2010,02,16,13,20,11.30
2010,02,16,13,21,11.30
2010,02,16,13,22,11.30
2010,02,16,13,23,11.30
2010,02,16,13,24,11.30
2010,02,16,13,25,11.30
2010,02,16,13,26,11.40
2010,02,16,13,27,11.40
2010,02,16,13,28,11.40
2010,02,16,13,29,11.50
2010,02,16,13,30,11.50
2010,02,16,13,31,11.60
2010,02,16,13,32,11.70
2010,02,16,13,33,11.70
2010,02,16,13,34,11.80
2010,02,16,13,35,11.80
2010,02,16,13,36,11.80
2010,02,16,13,37,11.90
2010,02,16,13,38,11.90
2010,02,16,13,39,12.00
2010,02,16,13,40,12.00
2010,02,16,13,41,12.10
2010,02,16,13,42,12.10
2010,02,16,13,43,12.10
2010,02,16,13,44,12.10
2010,02,16,13,45,12.10
2010,02,16,13,46,12.10
2010,02,16,13,47,12.10
2010,02,16,13,48,12.10
2010,02,16,13,49,12.00
2010,02,16,13,50,12.00
2010,02,16,13,51,11.90
2010,02,16,13,52,11.80
2010,02,16,13,53,11.80
2010,02,16,13,54,11.70
2010,02,16,13,55,11.60
2010,02,16,13,56,11.50
2010,02,16,13,57,11.40
2010,02,16,13,58,11.40
2010,02,16,13,59,11.40
2010,02,16,14,00,11.40
2010,02,16,14,01,11.40
2010,02,16,14,02,11.40
2010,02,16,14,03,11.40
2010,02,16,14,04,11.40
2010,02,16,14,05,11.40
2010,02,16,14,06,11.40
2010,02,16,14,07,11.50
2010,02,16,14,08,11.50
2010,02,16,14,09,11.60
2010,02,16,14,10,11.60
2010,02,16,14,11,11.70
2010,02,16,14,12,11.70
2010,02,16,14,13,11.80
2010,02,16,14,14,11.80
2010,02,16,14,15,11.80
2010,02,16,14,16,11.80
2010,02,16,14,17,11.80
2010,02,16,14,18,11.80
2010,02,16,14,19,11.80
2010,02,16,14,20,11.80
2010,02,16,14,21,11.80
2010,02,16,14,22,11.70
2010,02,16,14,23,11.70
2010,02,16,14,24,11.60
2010,02,16,14,25,11.60
2010,02,16,14,26,11.50
2010,02,16,14,27,11.50
2010,02,16,14,28,11.40
2010,02,16,14,29,11.40
2010,02,16,14,30,11.40
2010,02,16,14,31,11.30
2010,02,16,14,32,11.30
2010,02,16,14,33,11.30
2010,02,16,14,34,11.40
2010,02,16,14,35,11.40
2010,02,16,14,36,11.30
2010,02,16,14,37,11.30
2010,02,16,14,38,11.30
2010,02,16,14,39,11.40
2010,02,16,14,40,11.40
2010,02,16,14,41,11.40
2010,02,16,14,42,11.40
2010,02,16,14,43,11.40
2010,02,16,14,44,11.40
2010,02,16,14,45,11.40
2010,02,16,14,46,11.40
2010,02,16,14,47,11.40
2010,02,16,14,48,11.40
2010,02,16,14,49,11.40
2010,02,16,14,50,11.30
2010,02,16,14,51,11.30
2010,02,16,14,52,11.30
2010,02,16,14,53,11.20
2010,02,16,14,54,11.20
2010,02,16,14,55,11.20
2010,02,16,14,56,11.20
2010,02,16,14,57,11.10
2010,02,16,14,58,11.10
2010,02,16,14,59,11.10
2010,02,16,15,00,11.00
2010,02,16,15,01,11.00
2010,02,16,15,02,11.00
2010,02,16,15,03,11.00
2010,02,16,15,04,11.10
2010,02,16,15,05,11.10
2010,02,16,15,06,11.10
2010,02,16,15,07,11.10
2010,02,16,15,08,11.10
2010,02,16,15,09,11.20
2010,02,16,15,10,11.20
2010,02,16,15,11,11.20
2010,02,16,15,12,11.10
2010,02,16,15,13,11.10
2010,02,16,15,14,11.00
2010,02,16,15,15,11.00
2010,02,16,15,16,11.00
2010,02,16,15,17,10.90
2010,02,16,15,18,10.80
2010,02,16,15,19,10.80
2010,02,16,15,20,10.80
2010,02,16,15,21,10.80
2010,02,16,15,22,10.80
2010,02,16,15,23,10.80
2010,02,16,15,24,10.80
2010,02,16,15,25,10.80
2010,02,16,15,26,10.80
2010,02,16,15,27,10.70
2010,02,16,15,28,10.70
2010,02,16,15,29,10.60
2010,02,16,15,30,10.60
2010,02,16,15,31,10.60
2010,02,16,15,32,10.50
2010,02,16,15,33,10.50
2010,02,16,15,34,10.50
2010,02,16,15,35,10.40
2010,02,16,15,36,10.40
2010,02,16,15,37,10.40
2010,02,16,15,38,10.40
2010,02,16,15,39,10.40
2010,02,16,15,40,10.40
2010,02,16,15,41,10.30
2010,02,16,15,42,10.30
2010,02,16,15,43,10.30
2010,02,16,15,44,10.30
2010,02,16,15,45,10.30
2010,02,16,15,46,10.20
2010,02,16,15,47,10.20
2010,02,16,15,48,10.30
2010,02,16,15,49,10.30
2010,02,16,15,50,10.30
2010,02,16,15,51,10.30
2010,02,16,15,52,10.20
2010,02,16,15,53,10.20
2010,02,16,15,54,10.20
2010,02,16,15,55,10.20
2010,02,16,15,56,10.20
2010,02,16,15,57,10.20
2010,02,16,15,58,10.20
2010,02,16,15,59,10.20
2010,02,16,16,00,10.20
2010,02,16,16,01,10.10
2010,02,16,16,02,10.10
2010,02,16,16,03,10.10
2010,02,16,16,04,10.00
2010,02,16,16,05,10.00
2010,02,16,16,06,9.90
2010,02,16,16,07,9.90
2010,02,16,16,08,9.80
2010,02,16,16,09,9.80
2010,02,16,16,10,9.70
2010,02,16,16,11,9.70
2010,02,16,16,12,9.70
2010,02,16,16,13,9.60
2010,02,16,16,14,9.60
2010,02,16,16,15,11.00
2010,02,16,17,06,8.30
2010,02,16,17,07,8.20
2010,02,16,17,08,8.20
2010,02,16,17,09,8.10
2010,02,16,17,10,8.10
2010,02,16,17,11,8.10
2010,02,16,17,12,8.00
2010,02,16,17,13,8.00
2010,02,16,17,14,7.90
2010,02,16,17,15,7.90
2010,02,16,17,16,7.80
2010,02,16,17,17,7.80
2010,02,16,17,18,7.80
2010,02,16,17,19,7.70
2010,02,16,17,20,7.70
2010,02,16,17,21,7.70
2010,02,16,17,22,7.60
2010,02,16,17,23,7.60
2010,02,16,17,24,7.60
2010,02,16,17,25,7.60
2010,02,16,17,26,7.50
2010,02,16,17,27,7.50
2010,02,16,17,28,7.40
2010,02,16,17,29,7.40
2010,02,16,17,30,7.40
2010,02,16,17,31,7.40
2010,02,16,17,32,7.30
2010,02,16,17,33,7.30
2010,02,16,17,34,7.30
2010,02,16,17,35,7.30
2010,02,16,17,36,7.20
2010,02,16,17,37,7.20
2010,02,16,17,38,7.20
2010,02,16,17,39,7.20
2010,02,16,17,40,7.20
2010,02,16,17,41,7.20
2010,02,16,17,42,7.10
2010,02,16,17,43,7.10
2010,02,16,17,44,7.10
2010,02,16,17,45,7.10
2010,02,16,17,46,7.10
2010,02,16,17,47,7.10
2010,02,16,17,48,7.10
2010,02,16,17,49,7.10
2010,02,16,17,50,7.00
2010,02,16,17,51,7.00
2010,02,16,17,52,7.00
2010,02,16,17,53,7.00
2010,02,16,17,54,6.90
2010,02,16,17,55,7.00
2010,02,16,17,56,7.00
2010,02,16,17,57,7.00
2010,02,16,17,58,7.00
2010,02,16,17,59,7.00
2010,02,16,18,00,7.00
2010,02,16,18,01,7.10
2010,02,16,18,02,7.10
2010,02,16,18,03,7.00
2010,02,16,18,04,7.00
2010,02,16,18,05,7.00
2010,02,16,18,06,7.00
2010,02,16,18,07,7.00
2010,02,16,18,08,7.00
2010,02,16,18,09,7.00
2010,02,16,18,10,7.00
2010,02,16,18,11,7.10
2010,02,16,18,12,7.10
2010,02,16,18,13,7.10
2010,02,16,18,14,7.20
2010,02,16,18,15,7.20
2010,02,16,18,16,7.20
2010,02,16,18,17,7.20
2010,02,16,18,18,7.20
2010,02,16,18,19,7.20
2010,02,16,18,20,7.20
2010,02,16,18,21,7.30
2010,02,16,18,22,7.30
2010,02,16,18,23,7.30
2010,02,16,18,24,7.30
2010,02,16,18,25,7.30
2010,02,16,18,26,7.30
2010,02,16,18,27,7.30
2010,02,16,18,28,7.30
2010,02,16,18,29,7.30
2010,02,16,18,30,7.30
2010,02,16,18,31,7.30
2010,02,16,18,32,7.30
2010,02,16,18,33,7.30
2010,02,16,18,34,7.30
2010,02,16,18,35,7.30
2010,02,16,18,36,7.30
2010,02,16,18,37,7.30
2010,02,16,18,38,7.30
2010,02,16,18,39,7.30
2010,02,16,18,40,7.30
2010,02,16,18,41,7.30
2010,02,16,18,42,7.30
2010,02,16,18,43,7.30
2010,02,16,18,44,7.30
2010,02,16,18,45,7.40
2010,02,16,18,46,7.40
2010,02,16,18,47,7.40
2010,02,16,18,48,7.50
2010,02,16,18,49,7.50
2010,02,16,18,50,7.50
2010,02,16,18,51,7.50
2010,02,16,18,52,7.50
2010,02,16,18,53,7.50
2010,02,16,18,54,7.50
2010,02,16,18,55,7.50
2010,02,16,18,56,7.50
2010,02,16,18,57,7.50
2010,02,16,18,58,7.50
2010,02,16,18,59,7.60
2010,02,16,19,00,7.60
2010,02,16,19,01,7.60
2010,02,16,19,02,7.60
2010,02,16,19,03,7.60
2010,02,16,19,04,7.60
2010,02,16,19,05,7.60
2010,02,16,19,06,7.60
2010,02,16,19,07,7.60
2010,02,16,19,08,7.70
2010,02,16,19,09,7.70
2010,02,16,19,10,7.70
2010,02,16,19,11,7.70
2010,02,16,19,12,7.70
2010,02,16,19,13,7.70
2010,02,16,19,14,7.70
2010,02,16,19,15,7.70
2010,02,16,19,16,7.70
2010,02,16,19,17,7.60
2010,02,16,19,18,7.60
2010,02,16,19,19,7.60
2010,02,16,19,20,7.60
2010,02,16,19,21,7.50
2010,02,16,19,22,7.50
2010,02,16,19,23,7.50
2010,02,16,19,24,7.40
2010,02,16,19,25,7.40
2010,02,16,19,26,7.40
2010,02,16,19,27,7.40
2010,02,16,19,28,7.40
2010,02,16,19,29,7.40
2010,02,16,19,30,7.40
2010,02,16,19,31,7.30
2010,02,16,19,32,7.30
2010,02,16,19,33,7.30
2010,02,16,19,34,7.30
2010,02,16,19,35,7.30
2010,02,16,19,36,7.30
2010,02,16,19,37,7.20
2010,02,16,19,38,7.20
2010,02,16,19,39,7.20
2010,02,16,19,40,7.10
2010,02,16,19,41,7.10
2010,02,16,19,42,7.10
2010,02,16,19,43,7.10
2010,02,16,19,44,7.10
2010,02,16,19,45,7.00
2010,02,16,19,46,7.00
2010,02,16,19,47,7.00
2010,02,16,19,48,7.00
2010,02,16,19,49,7.10
2010,02,16,19,50,7.10
2010,02,16,19,51,7.10
2010,02,16,19,52,7.10
2010,02,16,19,53,7.10
2010,02,16,19,54,7.10
2010,02,16,19,55,7.10
2010,02,16,19,56,7.10
2010,02,16,19,57,7.00
2010,02,16,19,58,7.00
2010,02,16,19,59,7.00
2010,02,16,20,00,7.00
2010,02,16,20,01,6.90
2010,02,16,20,02,6.90
2010,02,16,20,03,6.90
2010,02,16,20,04,6.90
2010,02,16,20,05,6.90
2010,02,16,20,06,6.80
2010,02,16,20,07,6.80
2010,02,16,20,08,6.80
2010,02,16,20,09,6.80
2010,02,16,20,10,6.80
2010,02,16,20,11,6.80
2010,02,16,20,12,6.80
2010,02,16,20,13,6.80
2010,02,16,20,14,6.70
2010,02,16,20,15,6.70
2010,02,16,20,16,6.70
2010,02,16,20,17,6.70
2010,02,16,20,18,6.70
2010,02,16,20,19,6.70
2010,02,16,20,20,6.70
2010,02,16,20,21,6.70
2010,02,16,20,22,6.70
2010,02,16,20,23,6.80
2010,02,16,20,24,6.70
2010,02,16,20,25,6.70
2010,02,16,20,26,6.70
2010,02,16,20,27,6.70
2010,02,16,20,28,6.70
2010,02,16,20,29,6.70
2010,02,16,20,30,6.70
2010,02,16,20,31,7.60
2010,02,16,21,06,7.10
2010,02,16,21,07,7.10
2010,02,16,21,08,7.10
2010,02,16,21,09,7.10
2010,02,16,21,10,7.00
2010,02,16,21,11,7.00
2010,02,16,21,12,7.00
2010,02,16,21,13,7.00
2010,02,16,21,14,7.00
2010,02,16,21,15,7.00
2010,02,16,21,16,7.00
2010,02,16,21,17,7.00
2010,02,16,21,18,7.00
2010,02,16,21,19,7.00
2010,02,16,21,20,7.00
2010,02,16,21,21,7.00
2010,02,16,21,22,7.00
2010,02,16,21,23,7.00
2010,02,16,21,24,7.00
2010,02,16,21,25,7.00
2010,02,16,21,26,7.00
2010,02,16,21,27,6.90
2010,02,16,21,28,6.90
2010,02,16,21,29,6.90
2010,02,16,21,30,6.90
2010,02,16,21,31,6.90
2010,02,16,21,32,6.90
2010,02,16,21,33,6.90
2010,02,16,21,34,6.80
2010,02,16,21,35,6.80
2010,02,16,21,36,6.80
2010,02,16,21,37,6.80
2010,02,16,21,38,6.90
2010,02,16,21,39,6.90
2010,02,16,21,40,6.90
2010,02,16,21,41,6.90
2010,02,16,21,42,6.90
2010,02,16,21,43,6.90
2010,02,16,21,44,6.90
2010,02,16,21,45,6.90
2010,02,16,21,46,6.90
2010,02,16,21,47,6.90
2010,02,16,21,48,6.80
2010,02,16,21,49,6.80
2010,02,16,21,50,6.80
2010,02,16,21,51,6.80
2010,02,16,21,52,6.80
2010,02,16,21,53,6.70
2010,02,16,21,54,6.70
2010,02,16,21,55,6.70
2010,02,16,21,56,6.60
2010,02,16,21,57,6.60
2010,02,16,21,58,6.60
2010,02,16,21,59,6.50
2010,02,16,22,00,6.50
2010,02,16,22,01,6.40
2010,02,16,22,02,6.40
2010,02,16,22,03,6.40